Weather in Halifax

United Kingdom     53°43′26″N   1°51′45″W
temp.,
°C
wind,
m/s
gust,
m/s
humid.,
%
clouds,
%
prec.,
mm/h
press.,
hPa
HPBL,
m
14 may, fri
fri1401:00+7ne259691 0.0 1011303
04:00+7ne2590100 0.0 1011392
07:00+7nne238798 0.1 1011400
10:00+9ne2377100 0.1 1011619
13:00+10ene226799 0.1 1010918
16:00+11se116276 0.1 1009874
19:00+11se236098 0.3 1007356
22:00+9ese237486 0.1 1007130
15 may, sat
sat1501:00+6e129458 0.1 1005101
04:00+6ene1392100 0.0 1003179
07:00+6e2493100 0.2 1002246
10:00+7e2497100 1.3 1001315
13:00+8e249099 2.6 1000530
16:00+9ene348995 0.8 999502
19:00+9e2595100 1.9 998252
22:00+7e249879 0.4 998144
16 may, sun
sun1601:00+7se129988 1.0 997117
04:00+7wsw1198100 0.3 99754
07:00+8s119493 1.0 99795
10:00+11sse127561 0.3 997890
13:00+12s1168100 1.1 996911
16:00+12nne117673 0.7 996337
19:00+11ne238479 2.0 996343
22:00+8nne2497100 1.3 998162
17 may, mon
mon1701:00+8nne1397100 1.6 999186
04:00+7n1398100 1.2 999219
07:00+8n129596 1.4 1001300
10:00+9n0191100 0.4 1002298
13:00+11w458596 2.3 1003966
16:00+12wnw786117 0.9 10041212
19:00+10wnw610675 0.9 10051179
22:00+7w398429 0.0 1007404
18 may, tue
tue1801:00+7wsw398645 0.0 1008338
04:00+6wsw410889 0.0 1008429
07:00+7wsw410845 0.0 1009730
10:00+10w69659 0.2 10101404
13:00+12w7105377 0.4 10101881
16:00+12w695644 0.1 10101775
19:00+11w47657 0.1 10101144
22:00+7wsw268246 0.0 1011181